Time,TemperatureF,DewpointF,PressureIn,WindDirection,WindDirectionDegrees,WindSpeedMPH,WindSpeedGustMPH,Humidity,HourlyPrecipIn,Conditions,Clouds,dailyrainin,SoftwareType,DateUTC
2014-07-22 01:43:00,70.0,68.0,30.10,ENE,73,0.0,0.0,92,0.00,,,0.00,,2014-07-22 05:43:00,
2014-07-22 02:22:00,69.0,67.0,30.10,ENE,71,0.0,0.0,92,0.00,,,0.00,,2014-07-22 06:22:00,
2014-07-22 02:42:00,69.0,68.0,30.09,ENE,73,0.0,0.0,98,0.00,,,0.00,,2014-07-22 06:42:00,
2014-07-22 03:12:00,69.0,69.0,30.08,ENE,73,0.0,0.0,100,0.00,,,0.00,,2014-07-22 07:12:00,
2014-07-22 06:03:00,67.0,67.0,30.09,ENE,73,0.0,0.0,100,0.00,,,0.00,,2014-07-22 10:03:00,
2014-07-22 06:23:00,67.0,67.0,30.09,ENE,73,0.0,0.0,100,0.00,,,0.00,,2014-07-22 10:23:00,
2014-07-22 06:33:00,67.0,67.0,30.09,ENE,73,0.0,0.0,100,0.00,,,0.00,,2014-07-22 10:33:00,
2014-07-22 07:12:00,66.0,66.0,30.11,ENE,75,0.0,0.0,100,0.00,,,0.00,,2014-07-22 11:12:00,
2014-07-22 07:43:00,66.0,66.0,30.11,ENE,75,0.0,0.0,100,0.00,,,0.00,,2014-07-22 11:43:00,
2014-07-22 07:52:00,66.0,66.0,30.11,ENE,75,0.0,0.0,100,0.00,,,0.00,,2014-07-22 11:52:00,
2014-07-22 08:03:00,66.0,66.0,30.11,ENE,75,0.0,0.0,100,0.00,,,0.00,,2014-07-22 12:03:00,
2014-07-22 08:12:00,66.0,66.0,30.11,ENE,75,0.0,0.0,100,0.00,,,0.00,,2014-07-22 12:12:00,
2014-07-22 08:42:00,69.0,69.0,30.11,NE,35,0.0,0.0,100,0.00,,,0.00,,2014-07-22 12:42:00,
2014-07-22 09:12:00,71.0,71.0,30.11,NE,37,0.0,0.0,100,0.00,,,0.00,,2014-07-22 13:12:00,
2014-07-22 09:32:00,72.0,72.0,30.11,NE,41,0.0,0.0,100,0.00,,,0.00,,2014-07-22 13:32:00,
2014-07-22 09:42:00,72.0,72.0,30.11,NE,41,0.0,0.0,100,0.00,,,0.00,,2014-07-22 13:42:00,
2014-07-22 10:02:00,72.0,72.0,30.11,NE,41,0.0,0.0,100,0.00,,,0.00,,2014-07-22 14:02:00,
2014-07-22 10:42:00,82.0,72.0,30.09,NE,48,0.0,0.0,73,0.00,,,0.00,,2014-07-22 14:42:00,
2014-07-22 10:53:00,82.0,72.0,30.09,NE,48,0.0,0.0,73,0.00,,,0.00,,2014-07-22 14:53:00,
2014-07-22 11:12:00,84.0,72.0,30.09,NE,48,0.0,0.0,68,0.00,,,0.00,,2014-07-22 15:12:00,
2014-07-22 12:04:00,86.0,71.0,30.09,East,80,1.0,5.0,61,0.00,,,0.00,,2014-07-22 16:04:00,
2014-07-22 12:44:00,87.0,70.0,30.08,East,96,3.0,6.0,57,0.00,,,0.00,,2014-07-22 16:44:00,
2014-07-22 13:03:00,87.0,67.0,30.08,ENE,59,0.0,4.0,52,0.00,,,0.00,,2014-07-22 17:03:00,
2014-07-22 13:42:00,89.0,67.0,30.07,ESE,112,1.0,6.0,48,0.00,,,0.00,,2014-07-22 17:42:00,
2014-07-22 13:53:00,89.0,67.0,30.07,ESE,112,1.0,6.0,48,0.00,,,0.00,,2014-07-22 17:53:00,
2014-07-22 14:12:00,90.0,67.0,30.07,SE,138,0.0,7.0,47,0.00,,,0.00,,2014-07-22 18:12:00,
2014-07-22 14:33:00,90.0,68.0,30.06,SE,144,0.0,10.0,49,0.00,,,0.00,,2014-07-22 18:33:00,
2014-07-22 14:42:00,90.0,68.0,30.06,SE,144,0.0,10.0,49,0.00,,,0.00,,2014-07-22 18:42:00,
2014-07-22 14:52:00,90.0,68.0,30.06,SE,144,0.0,10.0,49,0.00,,,0.00,,2014-07-22 18:52:00,
2014-07-22 15:42:00,91.0,67.0,30.06,SSE,151,0.0,7.0,45,0.00,,,0.00,,2014-07-22 19:42:00,
2014-07-22 16:52:00,91.0,68.0,30.04,ENE,69,3.0,7.0,47,0.00,,,0.00,,2014-07-22 20:52:00,
2014-07-22 17:02:00,91.0,68.0,30.04,ENE,69,3.0,7.0,47,0.00,,,0.00,,2014-07-22 21:02:00,